Regional Weather Roundup
Issued by NWS

Home | Current Version | Previous Version | Text Only | Print | Product List | Glossary On
Versions: 1 2 3 4 5 6 7 8 9 10 11 12 13 14 15 16 17 18 19 20 21 22 23 24 25 26 27 28 29 30 31 32 33 34 35 36 37 38 39 40 41 42 43 44 45 46 47 48 49 50
000
ASUS43 KLMK 300910
RWRKY
KENTUCKY REGIONAL WEATHER ROUNDUP
NATIONAL WEATHER SERVICE LOUISVILLE KY
500 AM EDT TUE SEP 30 2014

NOTE "FAIR" INDICATES FEW OR NO CLOUDS BELOW 12,000 FEET
WITH NO SIGNIFICANT WEATHER AND/OR OBSTRUCTIONS TO VISIBILITY.

KYZ001>023-026-027-061>063-070>075-301000-
WESTERN AND SOUTH CENTRAL KENTUCKY

CITY           SKY/WX    TMP DP  RH WIND       PRES   REMARKS
PADUCAH        CLEAR     54  53  97 CALM      29.94R FOG
HENDERSON      NOT AVBL
OWENSBORO      CLEAR     56  55  96 CALM      29.94S
HOPKINSVILLE   CLEAR     59  58  97 W2        29.94S
BOWLING GREEN  FOG       56  53  90 CALM      29.94S VSB 1/2
GLASGOW        PTCLDY    54  54 100 CALM      29.94S FOG
$$

KYZ024-025-028>034-038-045-046-053-301000-
NORTH CENTRAL KENTUCKY

CITY           SKY/WX    TMP DP  RH WIND       PRES   REMARKS
LOUISVILLE/SDF CLEAR     60  56  86 VRB5      29.93S
LOUISVILLE/LOU CLEAR     57  55  93 CALM      29.94S
FORT KNOX      CLEAR     53  52  96 CALM      29.93S
$$

KYZ035>037-039>044-047>052-055>060-089>105-301000-
NORTHEAST KENTUCKY

CITY           SKY/WX    TMP DP  RH WIND       PRES   REMARKS
LEXINGTON      CLEAR     57  52  83 S3        29.94S
COVINGTON      CLEAR     56  51  84 CALM      29.92F
FRANKFORT      CLEAR     52  50  93 CALM      29.93S
$$

KYZ054-064>069-076>088-106>120-301000-
SOUTHEAST KENTUCKY

CITY           SKY/WX    TMP DP  RH WIND       PRES   REMARKS
JACKSON        CLEAR     60  58  92 CALM      29.95S FOG
LONDON         FOG       57  55  93 CALM      29.96S VSB 1/4
SOMERSET       FOG       59  59 100 CALM      29.96S VSB<1/4
MIDDLESBORO    FOG       58  58 100 CALM      29.97F VSB 1
MONTICELLO     FOG       53  53 100 CALM      29.96F VSB<1/4
$$



USA.gov is the U.S. government's official web portal to all federal, state and local government web resources and services.